DW8293 Weather Reports


Display with metric or nautical units.
time (UTC)temp
F
wind
direction
speed
MPH
gust
MPH
rain 1hr
in
rain 24hr
in
rain mn
in
humidity
%
barometer
mb
20260904095403 63 123 2.0 4.0 0.00 0.00 0.00 60 995.2
20260904094504 63 83 2.0 6.0 0.00 0.00 0.00 59 995.2
20260904093603 64 76 2.0 9.0 0.00 0.00 0.00 60 995.5
20260904092703 64 74 1.0 4.0 0.00 0.00 0.00 61 995.3
20260904091824 63 78 2.0 7.0 0.00 0.00 0.00 60 995.6
20260904090904 63 76 3.0 8.0 0.00 0.00 0.00 60 995.6
20260904090006 62 85 4.0 6.0 0.00 0.00 0.00 63 995.6
20260904085406 63 111 2.0 4.0 0.00 0.00 0.00 61 995.7
20260904084503 63 72 0.0 4.0 0.00 0.00 0.00 61 995.6
20260904083603 61 58 2.0 2.0 0.00 0.00 0.00 64 995.5
20260904082703 60 312 0.0 4.0 0.00 0.00 0.00 68 995.9
20260904081803 58 308 0.0 4.0 0.00 0.00 0.00 72 995.7
20260904080903 57 328 2.0 2.0 0.00 0.00 0.00 74 995.8
20260904080003 57 31 1.0 2.0 0.00 0.00 0.00 73 996.0
20260904075404 56 73 2.0 2.0 0.00 0.00 0.00 76 996.2
20260904074505 55 270 1.0 2.0 0.00 0.00 0.00 79 996.1
20260904073603 53 276 1.0 4.0 0.00 0.00 0.00 82 996.2
20260904072703 54 264 2.0 4.0 0.00 0.00 0.00 80 996.4
20260904071803 53 247 2.0 2.0 0.00 0.00 0.00 82 996.1
20260904070926 52 247 1.0 2.0 0.00 0.00 0.00 82 996.3
20260904070005 51 247 0.0 2.0 0.00 0.00 0.00 85 996.7
20260904065403 51 247 1.0 2.0 0.00 0.00 0.00 85 996.5
20260904064505 50 239 0.0 4.0 0.00 0.00 0.00 88 996.7
20260904063603 49 247 0.0 2.0 0.00 0.00 0.00 86 996.6
20260904062703 50 247 0.0 2.0 0.00 0.00 0.00 87 996.5
20260904061804 49 247 0.0 4.0 0.00 0.00 0.00 89 996.4
20260904060903 48 247 3.0 4.0 0.00 0.00 0.00 87 996.7
20260904060003 49 247 0.0 2.0 0.00 0.00 0.00 87 996.5
20260904055405 49 247 0.0 2.0 0.00 0.00 0.00 86 996.7
20260904054503 49 247 0.0 2.0 0.00 0.00 0.00 85 996.5
20260904053624 47 247 0.0 2.0 0.00 0.00 0.00 87 996.7
20260904052705 46 0 0.0 0.0 0.00 0.00 0.00 87 996.9
20260904051803 45 0 0.0 0.0 0.00 0.00 0.00 93 996.8
20260904050903 43 247 0.0 2.0 0.00 0.00 0.00 93 997.0
20260904050004 44 247 0.0 2.0 0.00 0.00 0.00 93 996.9
20260904045403 44 247 0.0 2.0 0.00 0.00 0.00 96 996.9
20260904044503 42 247 0.0 2.0 0.00 0.00 0.00 97 996.9
20260904043605 41 0 0.0 0.0 0.00 0.00 0.00 99 996.7
20260904042703 41 247 0.0 2.0 0.00 0.00 0.00 99 996.8
20260904041803 41 247 0.0 2.0 0.00 0.00 0.00 99 996.9
20260904040924 40 247 0.0 2.0 0.00 0.00 0.00 99 996.8
20260904040005 40 0 0.0 0.0 0.00 0.00 0.00 99 996.8
20260904035426 40 0 0.0 0.0 0.00 0.00 0.00 99 997.0
20260904034505 40 0 0.0 0.0 0.00 0.00 0.00 99 996.9
20260904033603 40 0 0.0 0.0 0.00 0.00 0.00 99 997.1
20260904032703 40 0 0.0 0.0 0.00 0.00 0.00 98 997.1
20260904031803 41 0 0.0 0.0 0.00 0.00 0.00 98 997.2
20260904030903 41 0 0.0 0.0 0.00 0.00 0.00 98 996.9
20260904030024 41 247 0.0 2.0 0.00 0.00 0.00 98 997.2
20260904025405 40 0 0.0 0.0 0.00 0.00 0.00 97 997.0
20260904024503 41 0 0.0 0.0 0.00 0.00 0.00 97 997.1
20260904023604 42 0 0.0 0.0 0.00 0.00 0.00 97 997.1
20260904022724 42 247 0.0 2.0 0.00 0.00 0.00 96 997.0
20260904021824 43 0 0.0 0.0 0.00 0.00 0.00 96 997.4
20260904020905 42 0 0.0 0.0 0.00 0.00 0.00 96 997.5
20260904020003 43 0 0.0 0.0 0.00 0.00 0.00 97 997.4
20260904015403 42 0 0.0 0.0 0.00 0.00 0.00 97 997.5
20260904014503 42 0 0.0 0.0 0.00 0.00 0.00 96 997.5
20260904013605 42 0 0.0 0.0 0.00 0.00 0.00 96 997.7
20260904012703 42 0 0.0 0.0 0.00 0.00 0.00 96 997.6
20260904011803 42 0 0.0 0.0 0.00 0.00 0.00 95 997.7
20260904010903 43 0 0.0 0.0 0.00 0.00 0.00 95 997.8
20260904010003 43 247 0.0 2.0 0.00 0.00 0.00 95 997.8
20260904005426 43 0 0.0 0.0 0.00 0.00 0.00 95 997.8
20260904004503 44 0 0.0 0.0 0.00 0.00 0.00 95 998.0
20260904003603 44 247 0.0 2.0 0.00 0.00 0.00 95 998.1
20260904002703 45 247 0.0 2.0 0.00 0.00 0.00 95 998.1
20260904001803 43 247 0.0 2.0 0.00 0.00 0.00 92 998.3
20260904000926 45 247 1.0 2.0 0.00 0.00 0.00 92 998.4
20260904000003 46 247 2.0 2.0 0.00 0.00 0.00 93 998.3
20260903235404 46 247 2.0 2.0 0.00 0.00 0.00 92 998.4
20260903234503 45 247 0.0 2.0 0.00 0.00 0.00 91 998.4
20260903233603 46 0 0.0 0.0 0.00 0.00 0.00 92 998.6
20260903232706 45 0 0.0 0.0 0.00 0.00 0.00 92 998.4
20260903231803 46 0 0.0 0.0 0.00 0.00 0.00 92 998.6
20260903230903 45 0 0.0 0.0 0.00 0.00 0.00 92 998.4
20260903230003 46 0 0.0 0.0 0.00 0.00 0.00 92 998.6
20260903225403 45 0 0.0 0.0 0.00 0.00 0.00 92 998.5
20260903224503 46 0 0.0 0.0 0.00 0.00 0.00 92 998.6
20260903223603 45 0 0.0 0.0 0.00 0.00 0.00 91 998.7
20260903222705 46 247 0.0 2.0 0.00 0.00 0.00 89 998.7
20260903221803 47 247 0.0 2.0 0.00 0.00 0.00 89 998.8
20260903220903 47 247 1.0 2.0 0.00 0.00 0.00 87 998.8
20260903220003 49 264 0.0 2.0 0.00 0.00 0.00 86 999.1
20260903215403 49 270 2.0 2.0 0.00 0.00 0.00 86 998.9
20260903214506 49 270 2.0 2.0 0.00 0.00 0.00 87 999.0
20260903213603 49 270 1.0 2.0 0.00 0.00 0.00 85 999.2
20260903212705 49 270 0.0 2.0 0.00 0.00 0.00 84 998.9
20260903211805 49 270 1.0 2.0 0.00 0.00 0.00 85 998.7
20260903210924 48 270 0.0 2.0 0.00 0.00 0.00 84 999.0
20260903210026 48 270 1.0 2.0 0.00 0.00 0.00 85 999.0
20260903205403 48 259 0.0 2.0 0.00 0.00 0.00 81 998.7
20260903204503 54 247 2.0 4.0 0.00 0.00 0.00 70 998.9
20260903203603 52 247 2.0 2.0 0.00 0.00 0.00 75 999.1
20260903202703 51 0 0.0 0.0 0.00 0.00 0.00 78 999.1
20260903201803 51 0 0.0 0.0 0.00 0.00 0.00 78 999.0
20260903200905 52 247 0.0 2.0 0.00 0.00 0.00 75 999.0
20260903200005 53 247 2.0 2.0 0.00 0.00 0.00 73 999.1
20260903195403 53 247 2.0 2.0 0.00 0.00 0.00 74 999.2
20260903194503 52 247 1.0 2.0 0.00 0.00 0.00 73 999.2
20260903193603 52 247 1.0 2.0 0.00 0.00 0.00 72 999.2
20260903192724 53 247 0.0 2.0 0.00 0.00 0.00 71 999.1
20260903191805 55 247 0.0 2.0 0.00 0.00 0.00 69 999.2
20260903190906 57 247 1.0 2.0 0.00 0.00 0.00 61 999.2
20260903190003 57 247 1.0 4.0 0.00 0.00 0.00 61 999.3
20260903185403 58 247 1.0 4.0 0.00 0.00 0.00 60 999.3
20260903184505 58 249 2.0 4.0 0.00 0.00 0.00 59 999.4
20260903183624 59 250 2.0 4.0 0.00 0.00 0.00 59 999.5
20260903182705 59 241 2.0 4.0 0.00 0.00 0.00 59 999.3
20260903181805 60 244 2.0 4.0 0.00 0.00 0.00 58 999.4
20260903180926 60 248 2.0 4.0 0.00 0.00 0.00 58 999.4
20260903180003 60 247 2.0 4.0 0.00 0.00 0.00 56 999.4
20260903175403 61 247 2.0 4.0 0.00 0.00 0.00 54 999.1
20260903174505 62 238 2.0 4.0 0.00 0.00 0.00 53 999.4
20260903173624 62 240 2.0 4.0 0.00 0.00 0.00 52 999.4
20260903172724 63 244 3.0 6.0 0.00 0.00 0.00 51 999.3
20260903171824 63 234 2.0 6.0 0.00 0.00 0.00 50 999.4
20260903170904 64 251 2.0 8.0 0.00 0.00 0.00 49 999.5
20260903170005 64 236 2.0 7.0 0.00 0.00 0.00 48 999.5
20260903165403 64 239 4.0 6.0 0.00 0.00 0.00 48 999.2
20260903164504 65 248 4.0 7.0 0.00 0.00 0.00 47 999.5
20260903163603 66 248 4.0 7.0 0.00 0.00 0.00 45 999.3
20260903162724 66 258 3.0 7.0 0.00 0.00 0.00 44 999.4
20260903161803 66 252 3.0 9.0 0.00 0.00 0.00 45 999.5
20260903160905 65 252 4.0 9.0 0.00 0.00 0.00 46 999.3
20260903160003 66 233 5.0 11.0 0.00 0.00 0.00 45 999.5
20260903155405 66 250 6.0 11.0 0.00 0.00 0.00 45 999.5
20260903154503 66 246 5.0 11.0 0.00 0.00 0.00 46 999.7
20260903153603 66 234 4.0 13.0 0.00 0.00 0.00 45 999.7
20260903152726 64 248 7.0 14.0 0.00 0.00 0.00 47 999.9
20260903151803 66 242 9.0 16.0 0.00 0.00 0.00 45 1000.0
20260903150903 67 259 5.0 15.0 0.00 0.00 0.00 43 999.7
20260903150003 67 252 7.0 15.0 0.00 0.00 0.00 40 999.8
20260903145426 68 250 4.0 15.0 0.00 0.00 0.00 41 1000.0
20260903144503 67 240 10.0 14.0 0.00 0.00 0.00 41 1000.0
20260903143604 67 256 8.0 14.0 0.00 0.00 0.00 40 999.9
20260903142724 68 288 4.0 13.0 0.00 0.00 0.00 41 999.9
20260903141803 67 253 9.0 13.0 0.00 0.00 0.00 42 999.7
20260903140903 67 251 4.0 14.0 0.00 0.00 0.00 40 999.6
20260903140003 67 279 4.0 14.0 0.00 0.00 0.00 42 999.9
20260903135403 65 282 8.0 14.0 0.00 0.00 0.00 44 999.9
20260903134503 65 277 3.0 9.0 0.00 0.00 0.00 45 1000.0
20260903133603 65 291 6.0 15.0 0.00 0.00 0.00 45 1000.1
20260903132706 66 293 12.0 15.0 0.00 0.00 0.00 43 999.8
20260903131803 67 284 4.0 13.0 0.00 0.00 0.00 42 999.9
20260903130903 67 285 5.0 11.0 0.00 0.00 0.00 44 1000.0
20260903130024 65 296 4.0 11.0 0.00 0.00 0.00 48 1000.0
20260903125403 65 293 4.0 9.0 0.00 0.00 0.00 48 1000.0
20260903124524 65 299 4.0 11.0 0.00 0.00 0.00 48 1000.0
20260903123604 65 292 4.0 11.0 0.00 0.00 0.00 48 1000.0
20260903122703 65 287 4.0 11.0 0.00 0.00 0.00 49 1000.1
20260903121803 63 291 7.0 11.0 0.00 0.00 0.00 50 1000.1
20260903120904 64 292 4.0 13.0 0.00 0.00 0.00 49 1000.4
20260903120003 63 283 7.0 14.0 0.00 0.00 0.00 50 1000.2
20260903115403 64 284 6.0 11.0 0.00 0.00 0.00 48 1000.2
20260903114525 64 236 8.0 11.0 0.00 0.00 0.00 48 1000.2
20260903113603 64 288 6.0 13.0 0.00 0.00 0.00 49 1000.3
20260903112703 65 270 3.0 11.0 0.00 0.00 0.00 49 1000.3
20260903111803 64 280 8.0 13.0 0.00 0.00 0.00 49 1000.4
20260903110903 64 288 7.0 15.0 0.00 0.00 0.00 51 1000.4
20260903110003 64 277 6.0 13.0 0.00 0.00 0.00 52 1000.6
20260903105403 64 266 4.0 13.0 0.00 0.00 0.00 52 1000.7
20260903104503 63 265 5.0 13.0 0.00 0.00 0.00 55 1000.6
20260903103603 63 272 4.0 9.0 0.00 0.00 0.00 55 1000.6
20260903102704 63 292 5.0 15.0 0.00 0.00 0.00 55 1000.9
20260903101803 63 258 9.0 15.0 0.00 0.00 0.00 54 1000.7
20260903100905 63 253 3.0 13.0 0.00 0.00 0.00 53 1000.6
20260903100004 62 260 7.0 13.0 0.00 0.00 0.00 55 1000.7